Voltar ao catálogo

NOAA 17 DEB

AtivoPO
NORAD 48765·DEBRIS·🇺🇸 United States

Lançado Jun 24, 2002 de Vandenberg Space Force Base

Loading…

Próximas Passagens (próximas 24 horas)

TLE

AtualizadoSource: Space-Track

Época: Sep 14, 2026, 01:09 UTC

1 48765U 02032DA  26257.04839046  .00018855  00000-0  18761-2 0  9995
2 48765  98.6882 294.7582 0008202  25.3863 334.7754 14.91681844286880

Acompanhe NOAA 17 DEB em tempo real com AllMySat

Download on the App Store